Regional Weather Roundup
Issued by NWS Albany, NY

Home | Current Version | Previous Version | Graphics & Text | Print | Product List | Glossary Off
Versions: 1 2 3 4 5 6 7 8 9 10 11 12 13 14 15 16 17 18 19 20 21 22 23 24 25 26 27 28 29 30 31 32 33 34 35 36 37 38 39 40 41 42 43 44 45 46 47 48 49 50

000
ASUS41 KALY 021010
RWRALY

NEW YORK STATE HOURLY WEATHER ROUNDUP
NATIONAL WEATHER SERVICE ALBANY NY
600 AM EDT SUN AUG 02 2015

NOTE: "FAIR" INDICATES FEW OR NO CLOUDS BELOW 12,000 FEET WITH NO
SIGNIFICANT WEATHER AND/OR NO OBSTRUCTIONS TO VISIBILITY.

NYZ032-033-038>043-046>054-057>066-NYZ062>081-021100-
EAST


CITY           SKY/WX    TMP DP  RH WIND       PRES   REMARKS
ALBANY         PTCLDY    58  54  86 SE3       29.87S
GLENS FALLS    CLEAR     55  51  86 CALM      29.87R
POUGHKEEPSIE   CLEAR     59  56  89 CALM      29.89R
NEWBURGH       CLEAR     61  57  88 W7        29.91R
MONTGOMERY     CLEAR     58  56  93 MISG      29.90R
WHITE PLAINS   CLEAR     64  60  87 NW5       29.89R
ISLIP          PTCLDY    65  60  84 CALM      29.87R
NEW YORK CITY  PTCLDY    74  57  55 CALM      29.88R
CENTRAL PARK   CLEAR     71  56  58 CALM      29.92R
$$

NYZ005>009-017-018-044>046-055-056-021100-
CENTRAL


CITY           SKY/WX    TMP DP  RH WIND       PRES   REMARKS
FULTON         CLEAR     61  56  83 S5        29.86R
SYRACUSE       PTCLDY    61  57  87 SE3       29.86R
ROME           CLEAR     54  52  93 CALM      29.89R
ELMIRA         CLEAR     51  51 100 CALM      29.91S
BINGHAMTON     CLEAR     58  53  84 SW8       29.93R
MONTICELLO     CLEAR     52  52 100 CALM      29.95R
$$

NYZ026>034-041>043-021100-
NORTH


CITY           SKY/WX    TMP DP  RH WIND       PRES   REMARKS
WATERTOWN      CLEAR     61  58  90 S5        29.84R
FORT DRUM      NOT AVBL
MASSENA        PTCLDY    60  57  89 SW9       29.81R
SARANAC LAKE   PTCLDY    48  47  96 CALM      29.86R
PLATTSBURGH    CLEAR     55  54  96 CALM      29.82R
$$

NYZ001>004-010>016-019>021-021100-
WEST


CITY           SKY/WX    TMP DP  RH WIND       PRES   REMARKS
NIAGARA FALLS  CLEAR     65  61  87 S5        29.84S
BUFFALO        PTCLDY    63  56  78 S7        29.86R
DUNKIRK        CLEAR     65  56  72 SW9       29.87S
JAMESTOWN      CLEAR     59  52  77 SW7       29.93S
WELLSVILLE     PTCLDY    61  50  67 SW8       29.96R
ROCHESTER      PTCLDY    61  56  83 SW8       29.86S
PENN YAN       CLEAR     63  57  81 SW7       29.89S
$$

             KEY
       WCI = WIND CHILL INDEX
       VSB = VISIBILITY
       HX  = HEAT INDEX
$$


USA.gov is the U.S. government's official web portal to all federal, state and local government web resources and services.